Theta_e
327 330 334 337 337 339 340 340 339 338 338 338 339 339 339 339 338 335 335 333 332 333 333 333 334 334 334 328 323 325 325 325 323 320 318 318 320 326 332 333 334 336 337 336 335 334 332 329 326 324 323 323 323 323 322 322 320 320 321 322 323 322 323 327 328 332 334 335 335 332 329 329 329 329 329 329 329 328 329 329 331 334 334 332 329
325 329 333 336 335 338 339 340 340 339 339 339 339 339 340 339 338 337 335 333 332 332 331 332 333 334 335 328 323 323 323 322 322 321 320 320 320 322 327 330 332 334 336 336 334 333 332 331 328 325 323 323 322 322 322 322 322 321 321 321 322 322 322 324 325 326 329 331 331 329 328 329 328 328 328 328 328 327 328 329 334 336 335 336 334
323 329 331 334 335 336 338 339 339 339 340 339 339 339 339 339 338 337 334 332 331 331 331 333 333 335 335 326 322 323 322 321 321 321 321 320 321 320 322 327 330 332 334 335 334 334 334 332 328 323 323 324 322 322 321 321 321 321 322 321 322 322 322 323 324 325 327 328 327 326 326 326 325 325 325 325 324 323 322 324 331 336 336 337 337
322 328 330 333 334 335 336 336 336 337 339 340 339 339 339 339 338 337 334 331 331 331 332 334 334 335 335 326 321 323 321 321 321 321 321 321 321 321 321 324 328 331 333 335 334 334 334 332 327 322 321 324 324 323 322 321 321 320 320 320 320 321 322 322 322 323 325 327 326 326 327 327 326 324 325 325 323 322 321 319 324 332 336 337 337
321 326 329 332 334 335 333 333 334 333 337 339 339 339 338 339 338 335 333 331 332 332 333 335 335 336 336 328 322 322 322 322 322 322 322 322 322 321 321 321 326 329 331 334 334 334 334 333 329 324 320 321 322 322 322 322 322 322 321 319 319 319 321 321 321 321 322 324 324 327 329 329 330 328 329 330 328 325 323 321 319 324 331 336 338
320 324 327 330 332 334 333 332 333 331 335 338 338 338 337 338 337 334 333 332 332 333 335 335 336 336 336 330 323 322 322 323 323 323 323 323 322 322 321 321 326 329 330 333 334 333 332 332 330 327 323 321 320 319 318 319 321 322 323 322 321 319 318 318 319 320 321 321 322 326 327 329 331 331 334 335 333 331 328 326 322 320 324 330 334
319 322 325 328 330 331 332 332 332 331 333 336 336 336 337 337 336 334 332 332 332 333 334 335 336 336 336 331 325 324 323 323 323 323 323 323 322 322 321 323 327 329 330 331 331 331 331 331 330 329 326 324 322 320 317 315 315 317 318 321 322 321 318 315 315 317 319 322 323 324 326 328 330 332 334 335 334 333 331 329 327 324 322 323 327
319 321 324 326 327 328 330 331 331 330 332 335 335 335 336 336 335 334 332 331 332 331 332 334 335 336 335 330 327 326 324 323 324 323 323 323 322 322 321 323 328 329 330 329 329 328 329 330 329 328 326 324 321 319 316 313 311 312 312 314 316 317 315 313 312 312 315 320 322 322 324 326 330 331 332 334 334 331 331 330 328 328 325 322 322
319 321 323 325 326 327 328 328 329 328 330 332 334 335 335 335 335 334 332 332 331 329 330 333 334 335 333 329 326 326 325 323 323 323 322 323 322 321 322 323 327 330 330 329 329 328 328 328 328 327 325 321 317 314 313 311 310 310 310 310 311 311 311 310 310 310 311 316 320 321 322 325 328 330 330 332 332 330 329 328 325 326 325 324 322
320 321 323 325 326 327 327 327 327 327 328 329 332 334 334 335 335 334 333 333 331 327 328 332 332 332 330 327 324 324 324 325 325 323 323 324 322 321 323 324 327 329 330 330 328 326 325 323 323 321 319 315 312 311 311 309 309 309 310 309 308 307 307 307 308 308 309 312 320 321 319 324 326 328 330 329 330 328 326 324 319 318 317 318 320
319 320 322 324 325 326 327 327 327 326 327 328 330 333 334 333 334 334 333 333 332 327 325 329 330 329 328 326 325 325 325 326 326 325 326 327 323 321 322 324 326 328 329 329 326 321 317 314 313 312 311 311 310 311 310 308 307 307 307 305 304 304 304 304 305 306 307 308 315 317 315 321 324 326 326 328 330 325 323 320 314 317 318 318 321
319 319 320 321 323 325 326 326 327 327 326 327 328 331 333 333 333 332 332 332 331 329 325 326 328 327 327 327 326 328 328 326 325 326 329 329 325 322 322 325 326 326 326 325 321 316 313 311 310 309 309 309 310 311 309 306 305 305 304 304 304 304 304 304 304 304 305 305 308 310 311 316 321 325 325 328 330 325 321 315 314 320 321 324 327
317 319 319 320 321 323 325 325 326 327 326 328 329 330 333 334 333 332 332 331 331 331 327 324 325 326 327 327 327 329 328 325 325 327 329 329 327 323 322 325 326 325 323 319 316 315 313 311 309 309 310 309 310 309 306 304 304 304 303 304 304 305 305 305 305 304 305 304 305 306 307 311 314 319 321 323 324 319 315 310 311 313 318 327 329
315 317 319 319 320 321 323 324 325 326 326 327 329 331 333 334 334 333 331 331 330 330 327 324 323 326 326 326 326 327 326 325 326 328 329 328 328 327 324 325 325 323 319 316 316 316 314 310 309 309 310 309 309 307 304 304 304 304 304 306 306 307 307 307 307 306 306 305 305 305 306 310 310 310 311 312 313 311 310 308 307 307 318 330 328
315 315 317 318 319 320 322 323 324 326 326 326 328 331 332 333 333 332 331 330 330 329 327 325 324 325 325 325 325 325 326 326 326 328 330 329 328 328 328 327 324 320 319 319 320 319 316 311 308 308 309 309 306 305 303 304 304 305 306 307 307 308 308 308 307 307 308 306 306 305 306 310 307 306 310 309 308 308 307 307 306 305 313 322 319
315 314 315 316 318 319 320 322 323 324 325 326 327 329 331 331 332 332 332 331 330 330 328 327 326 326 326 326 326 326 326 326 326 326 329 332 331 330 330 330 328 325 325 324 323 322 320 315 309 306 308 307 305 304 303 303 304 305 307 307 307 307 307 307 307 307 307 307 307 306 309 311 306 308 314 311 307 308 307 306 307 305 306 309 309
315 315 315 315 316 317 318 320 321 322 323 325 326 328 330 330 331 332 332 331 330 330 329 328 328 328 327 326 326 326 325 326 327 325 328 331 332 332 330 331 332 330 329 327 326 325 323 319 311 306 306 306 304 303 303 303 304 306 306 306 307 306 306 306 306 306 306 307 306 307 310 311 306 307 312 311 307 307 307 306 306 306 306 306 306
315 315 315 315 315 315 316 318 319 321 322 323 324 326 328 328 329 330 331 330 329 330 329 329 329 329 328 327 326 327 324 325 327 326 328 330 331 332 331 331 332 332 330 329 328 327 325 321 313 306 305 305 303 303 303 303 304 306 306 306 306 306 306 306 306 306 306 306 306 306 307 307 306 306 308 309 307 306 306 306 306 306 306 306 306
315 315 315 315 315 315 315 316 318 320 323 325 325 326 327 328 328 330 330 330 329 329 329 329 329 329 329 328 327 327 325 324 325 326 327 328 329 330 331 330 330 331 331 330 329 327 324 322 317 309 305 305 303 303 303 303 304 306 305 305 306 306 306 306 306 307 306 306 306 306 306 306 306 306 306 307 306 306 306 306 306 306 306 306 306
315 315 316 315 315 315 315 316 316 318 323 328 330 330 329 328 329 329 331 331 330 329 329 330 329 329 329 329 328 327 327 325 324 324 324 326 328 330 330 329 330 331 331 330 329 326 323 322 321 312 305 305 304 303 302 303 304 305 305 305 305 305 306 306 307 307 306 306 306 306 306 306 306 306 306 306 306 306 306 306 306 306 306 306 306
315 315 315 316 316 316 315 315 315 316 319 325 330 331 331 329 330 329 330 331 330 329 329 329 329 329 329 328 328 328 328 328 326 324 322 324 326 328 328 328 328 329 330 330 328 326 323 322 321 315 307 305 305 303 302 302 303 304 305 305 305 305 305 306 307 307 307 306 306 306 306 306 306 305 305 305 305 306 306 306 306 306 306 306 306
315 315 315 315 316 315 316 315 315 315 315 318 322 328 330 328 329 329 329 330 330 329 329 328 328 327 328 328 328 328 328 328 328 326 323 323 324 325 325 325 325 326 327 329 328 326 323 322 321 318 312 306 305 304 303 302 302 304 304 304 304 304 305 306 307 307 307 307 306 306 306 306 306 305 305 305 305 305 306 306 306 306 306 306 307
315 315 315 315 315 316 316 316 316 315 315 315 315 320 324 325 327 328 328 329 330 330 329 328 328 327 327 328 328 328 326 326 328 327 324 324 325 325 324 323 323 323 326 327 326 324 323 323 321 320 317 309 306 305 304 302 302 303 304 304 304 304 304 305 307 307 307 307 306 306 306 306 306 305 306 305 305 305 306 306 306 306 306 306 307
315 315 315 315 315 315 315 316 316 315 315 315 315 315 318 323 325 325 325 327 330 331 330 329 329 328 328 328 328 328 326 327 328 326 323 323 325 326 325 323 322 323 326 327 326 324 324 323 320 321 320 314 309 306 304 303 302 302 303 304 304 304 304 304 306 307 307 307 306 306 306 306 306 306 306 306 306 305 305 306 306 306 306 307 308
314 314 314 314 314 315 315 316 316 316 315 315 316 316 317 322 324 324 325 326 329 331 330 329 329 328 328 329 328 327 326 327 328 327 325 324 325 327 326 324 321 322 325 325 326 325 324 324 322 322 321 318 314 310 306 304 303 302 302 303 304 304 304 304 305 306 307 306 306 306 306 306 306 306 306 306 306 305 306 305 306 306 306 307 308
313 313 313 313 314 314 314 315 316 315 315 316 316 317 317 321 324 324 325 325 325 329 333 333 331 329 328 329 328 327 328 326 326 328 328 327 327 328 326 324 321 322 324 325 325 325 325 325 323 322 322 320 318 313 310 307 305 303 301 302 303 304 303 303 303 304 306 306 306 306 306 306 306 306 306 306 306 306 306 306 306 305 306 309 310
313 313 313 313 313 313 314 313 315 316 316 316 316 318 317 320 325 325 325 327 324 325 333 335 334 333 332 331 329 329 329 326 326 327 328 328 328 328 326 324 323 326 327 326 326 327 328 326 324 325 324 321 319 316 313 311 308 305 303 302 302 303 303 303 303 303 304 305 305 306 305 306 306 306 306 306 306 306 306 307 308 306 307 312 315
312 313 313 313 313 313 314 313 314 315 316 316 316 318 318 320 325 325 325 326 326 326 329 329 330 333 333 331 329 330 329 328 329 330 330 330 328 328 326 324 325 327 327 327 329 330 329 327 326 325 323 322 321 317 315 314 312 309 306 303 301 302 302 303 303 303 303 303 304 305 305 305 305 305 305 305 305 306 306 306 310 311 312 315 317
312 312 312 312 313 313 314 314 314 315 316 316 316 317 319 322 324 327 328 326 328 333 331 328 327 329 330 328 330 333 332 329 330 332 332 332 331 329 328 325 324 324 324 326 329 329 327 326 326 325 323 323 322 319 317 317 316 314 311 308 305 302 301 302 303 303 303 303 303 304 304 304 304 305 305 305 305 305 305 305 306 312 316 317 318
311 312 312 312 313 313 314 314 314 315 316 316 316 317 320 323 322 325 330 327 327 332 334 332 329 330 331 331 332 334 334 331 330 332 332 332 332 330 329 328 327 326 324 324 325 326 326 327 327 325 324 323 323 321 319 318 317 316 315 313 310 307 303 301 301 302 303 303 303 303 303 304 304 304 304 305 305 305 305 305 304 308 314 316 316
311 311 312 312 313 313 314 314 315 315 316 316 316 317 319 321 320 320 324 324 324 327 330 331 329 328 329 332 334 332 332 332 330 331 330 331 331 329 328 329 328 327 325 323 323 325 326 327 326 325 324 324 323 322 320 318 317 317 316 315 313 311 308 304 302 301 302 302 303 303 303 303 303 303 304 304 304 304 304 304 304 304 306 309 311
311 311 311 312 312 313 315 315 315 315 315 316 316 317 319 319 320 320 320 321 322 323 324 325 325 324 325 330 332 331 331 330 329 330 329 329 329 328 327 326 325 324 323 322 323 326 325 326 326 326 326 325 323 321 321 319 318 317 317 317 315 313 311 308 305 302 301 301 301 302 302 302 302 302 303 303 304 304 304 304 304 304 303 304 305
310 311 311 311 312 313 315 316 317 317 316 317 317 318 320 320 320 321 321 321 321 321 320 322 323 323 324 326 327 327 328 328 329 330 329 329 328 327 325 323 323 323 324 323 325 325 324 326 327 326 326 325 323 322 322 321 320 318 317 317 317 316 314 311 309 306 303 302 301 301 301 301 302 302 302 302 303 303 303 303 303 303 303 303 303
310 311 311 312 313 313 315 317 318 319 319 319 319 320 321 322 322 322 322 322 321 319 319 321 323 324 325 325 325 325 325 328 330 329 328 328 326 325 323 322 322 322 323 324 326 327 325 326 326 325 324 324 323 321 321 321 321 319 318 317 317 317 316 315 313 311 308 305 303 301 301 300 300 301 301 301 302 302 302 303 303 303 303 303 302
311 312 312 313 315 315 315 317 318 320 320 321 321 322 322 322 322 322 322 322 321 320 322 323 323 325 326 326 325 324 325 327 327 325 324 323 323 323 323 322 322 322 323 324 325 325 324 323 324 323 323 322 322 321 320 320 320 319 318 318 318 317 317 317 316 315 314 312 309 306 304 302 301 300 300 300 300 301 301 302 302 302 302 302 302
312 313 314 315 316 317 317 318 319 319 320 321 321 322 322 323 323 323 322 322 321 321 324 325 324 324 325 324 324 324 325 326 325 323 322 321 322 323 323 322 323 323 322 322 322 322 321 322 322 322 322 321 321 322 322 321 320 319 319 319 319 318 318 317 317 316 316 315 314 312 310 307 305 302 301 300 299 300 300 301 301 301 302 302 302
311 312 314 315 315 316 317 318 319 319 319 319 320 320 321 322 322 322 321 321 321 321 322 324 323 323 324 324 324 324 324 325 325 324 324 323 323 324 324 323 324 324 323 323 323 322 321 322 322 322 322 322 322 323 322 321 321 320 319 319 319 318 318 317 317 316 315 315 315 314 314 312 310 308 305 302 300 299 299 299 300 300 300 301 301
311 312 313 314 314 315 316 317 317 318 318 318 318 318 319 320 321 320 320 320 320 320 320 321 322 323 323 323 323 323 324 324 323 323 323 324 323 323 324 323 323 323 323 323 323 323 322 321 322 322 322 322 321 322 322 321 321 320 319 319 319 318 317 317 316 315 315 314 314 314 314 313 313 312 310 308 305 302 300 299 299 299 299 300 300
311 312 313 313 313 314 314 314 314 314 315 315 315 315 316 317 318 318 318 318 318 319 318 318 319 320 321 321 320 320 320 321 321 321 321 321 321 322 322 322 322 321 321 321 322 322 322 321 322 321 320 319 319 319 320 320 319 319 319 318 318 318 317 316 315 314 314 313 313 312 312 312 312 312 311 310 308 305 303 301 299 298 298 299 299
311 313 314 314 313 313 313 312 311 312 313 314 313 312 312 313 315 316 316 315 315 316 315 315 316 317 317 317 316 315 315 316 317 317 317 316 317 319 319 319 319 318 318 318 319 320 320 320 320 319 318 318 317 317 317 317 317 317 317 317 316 316 314 313 312 312 312 311 311 310 310 310 310 310 310 309 308 307 305 303 301 300 299 298 298
310 312 315 315 314 313 313 313 313 314 315 315 313 312 310 310 312 312 312 312 312 312 312 312 313 313 312 313 312 311 311 310 309 310 310 311 312 313 314 314 313 312 312 313 315 316 317 317 317 317 316 316 316 317 317 317 316 315 314 313 312 311 310 309 309 309 309 309 309 308 309 309 309 309 309 308 308 307 305 304 302 301 300 299 298
310 312 315 314 313 313 313 314 314 315 315 314 313 311 310 309 309 309 309 309 308 308 308 307 307 307 307 307 307 307 307 306 306 306 306 307 307 307 307 307 307 306 307 307 308 309 310 310 311 312 312 312 312 312 313 312 311 310 309 309 308 307 306 306 307 307 307 307 307 307 307 307 308 308 308 308 308 307 307 305 304 303 301 300 299
310 312 313 312 313 313 312 312 312 311 311 310 309 308 308 308 307 307 307 306 306 305 305 305 305 305 305 305 305 305 305 306 306 306 306 306 306 306 306 306 305 305 305 304 304 304 304 305 305 306 306 306 306 305 306 305 305 305 305 306 306 305 306 306 305 304 304 305 305 305 305 305 306 306 306 306 306 307 307 307 306 306 305 303 302
310 311 311 311 311 310 309 309 308 307 307 307 306 306 307 307 306 306 306 305 305 305 305 305 305 305 305 305 305 305 305 305 305 305 305 305 305 305 305 305 305 304 304 304 304 303 303 303 303 303 303 303 303 302 302 302 302 302 302 304 304 305 306 304 302 303 303 303 303 303 303 303 302 302 302 302 303 303 304 304 305 306 306 306 306
309 310 309 309 308 307 306 306 306 306 305 305 306 305 305 306 305 305 305 305 304 304 304 304 304 304 304 303 303 303 303 303 303 303 303 303 303 303 303 303 303 303 303 302 302 302 302 302 302 301 301 301 301 300 300 300 300 300 300 302 303 304 303 300 301 302 301 300 300 299 298 298 298 298 298 298 298 299 299 300 301 302 302 303 304
308 308 307 306 306 305 305 305 305 304 304 304 304 304 304 304 304 304 304 303 303 303 303 303 302 302 302 302 302 302 302 302 302 301 301 301 301 301 300 300 300 300 300 300 300 299 299 299 299 299 298 298 298 298 297 297 297 297 297 297 297 298 296 295 297 298 297 297 296 294 294 294 294 294 295 295 295 295 295 296 297 297 298 299 300
306 305 305 305 304 304 304 303 303 303 303 303 303 303 303 303 303 303 302 302 302 302 302 301 301 301 301 301 300 300 300 300 300 299 299 299 298 298 298 298 298 297 297 297 297 296 296 296 295 295 295 294 294 294 294 293 293 293 293 292 292 292 291 291 291 291 292 294 293 292 292 292 292 293 293 293 293 293 293 293 293 294 294 295 295
304 304 304 303 303 303 303 302 302 302 302 302 302 301 301 301 301 301 301 301 301 301 301 300 300 300 300 299 299 299 298 298 298 297 297 297 296 296 295 295 295 295 294 295 295 294 293 293 292 292 292 292 292 292 291 291 291 290 290 290 290 290 290 290 289 289 290 291 291 292 292 292 291 292 292 291 291 291 292 292 292 292 293 293 293
303 303 302 302 302 302 302 302 302 302 301 301 301 300 300 300 300 300 300 300 300 299 300 299 299 298 298 298 297 297 297 296 296 296 295 295 294 294 294 293 293 293 293 293 292 292 292 292 291 291 291 291 290 290 290 290 289 289 289 289 289 289 289 289 289 289 289 289 290 290 290 291 291 291 291 291 290 290 290 291 291 291 292 292 292
302 302 301 301 301 301 301 301 301 301 301 300 300 300 300 299 299 299 299 299 299 299 298 298 297 297 296 296 296 295 295 295 294 294 294 294 293 293 293 292 292 292 292 291 291 291 291 291 290 290 290 289 289 289 289 289 289 288 288 288 288 289 289 288 288 288 288 288 288 288 288 289 290 290 291 290 290 290 290 290 290 291 291 291 291
301 301 301 301 301 301 301 300 301 300 300 299 299 299 299 299 298 298 298 298 298 297 297 297 296 295 295 295 294 294 294 293 293 293 293 292 292 292 292 291 291 291 291 291 290 290 290 290 289 289 289 289 289 288 288 288 288 288 288 288 288 288 288 288 288 288 287 287 287 287 288 288 288 289 290 290 290 290 290 290 290 290 290 290 290
Wind_Speed
7 15 18 17 16 15 15 13 12 12 10 10 9 9 8 6 5 5 4 3 1 2 2 3 3 3 3 2 5 6 6 7 7 7 7 8 8 8 7 6 6 6 7 8 9 9 9 9 10 9 8 8 9 10 10 10 9 8 6 5 5 5 5 5 6 6 5 4 4 4 4 4 5 5 5 5 5 5 5 6 7 6 5 4 4
7 13 16 17 16 15 14 13 12 12 10 9 9 8 7 6 4 4 4 3 2 1 3 3 3 3 3 3 5 7 7 7 7 7 7 6 6 6 6 5 5 5 5 6 6 7 7 8 8 9 8 8 8 9 10 9 9 8 8 8 8 7 7 6 6 6 5 5 5 6 5 5 6 6 6 6 6 6 6 6 7 6 5 5 5
7 11 15 16 16 15 14 13 12 12 11 10 9 8 7 6 4 4 3 3 2 2 3 3 2 2 2 3 5 6 7 7 7 7 6 5 5 5 5 5 4 3 4 5 6 5 5 7 8 8 7 6 7 7 8 8 8 8 7 7 8 8 8 7 7 7 6 6 7 7 6 6 6 7 7 7 6 6 6 6 6 6 6 5 5
7 11 14 15 15 15 13 12 12 12 12 10 9 8 7 6 5 3 3 3 3 2 2 2 2 2 2 2 4 5 6 6 6 6 5 5 5 5 5 4 4 3 3 4 6 5 5 6 7 8 7 6 5 6 6 6 6 6 6 6 7 6 6 6 6 6 6 7 7 7 7 7 6 6 6 6 6 5 6 5 5 6 6 6 5
6 9 12 14 15 14 12 11 11 11 12 10 9 8 7 6 5 4 3 3 2 2 2 1 1 1 1 2 3 4 5 5 5 5 5 6 6 6 4 3 3 2 2 3 4 5 5 5 5 6 6 6 5 5 5 4 5 5 5 5 6 5 5 5 5 5 5 5 6 7 6 5 5 6 6 6 5 4 4 4 3 4 5 5 6
7 8 10 13 15 14 13 11 10 11 11 10 9 8 7 6 5 4 4 3 2 2 1 0 1 1 1 1 3 3 4 5 4 4 5 6 6 5 3 2 2 1 1 2 3 4 6 5 4 4 4 5 5 5 5 5 5 5 5 5 5 5 4 4 4 3 3 4 6 6 4 4 4 4 5 5 5 6 5 4 3 2 2 2 3
7 9 10 12 13 14 13 11 10 11 11 10 9 8 7 6 5 4 4 3 1 1 1 1 1 2 2 2 2 3 3 4 4 5 6 7 7 4 2 2 2 1 0 2 3 4 5 5 4 3 4 5 6 6 6 6 5 5 5 5 5 5 5 5 4 3 3 4 5 3 3 4 3 3 3 3 4 6 6 5 4 2 1 0 0
8 9 10 11 12 13 13 12 10 10 10 11 10 9 7 6 5 4 4 2 1 1 0 1 2 2 2 3 2 2 3 4 4 5 7 8 6 4 1 2 2 1 1 3 4 5 5 5 5 4 5 7 7 7 7 6 6 5 5 6 6 6 6 6 5 4 3 2 1 0 2 4 3 3 2 2 4 5 5 5 4 3 1 1 1
8 9 10 11 12 12 12 12 11 10 10 10 10 9 8 7 6 5 3 2 2 1 1 1 1 2 2 2 1 1 2 3 4 6 8 8 6 3 1 2 2 1 2 3 4 5 5 4 4 5 7 9 9 8 7 7 6 5 5 5 5 5 5 5 5 4 3 2 0 1 2 4 3 2 3 4 5 6 5 6 5 4 3 2 2
8 9 10 11 12 12 12 12 11 10 10 10 10 9 8 8 6 5 4 3 2 2 1 1 1 0 1 1 1 1 3 3 5 8 8 7 6 3 2 2 2 2 3 4 6 6 5 5 5 7 9 10 9 7 7 7 6 5 4 4 3 3 3 3 3 3 2 2 0 1 1 3 3 1 3 4 6 7 5 5 5 5 3 1 2
8 9 10 11 11 12 12 12 11 11 10 10 10 10 9 8 7 5 5 4 3 3 1 1 2 0 1 1 2 2 4 4 6 8 7 7 7 3 2 2 2 2 3 5 7 7 7 8 9 10 10 9 8 6 6 6 4 2 1 1 1 1 0 0 1 1 1 1 1 1 1 3 2 1 2 2 5 5 4 5 6 5 3 3 2
8 9 10 11 12 12 12 12 11 11 11 10 10 11 10 9 8 7 6 5 5 4 2 1 2 1 1 1 2 2 3 5 5 6 6 7 7 4 2 1 2 3 4 6 8 8 10 11 11 10 8 8 7 5 5 4 2 1 2 2 2 3 4 3 3 3 2 2 2 2 2 3 4 3 2 1 1 2 5 7 5 3 3 5 4
7 8 9 10 12 12 12 12 11 11 11 11 10 11 11 10 9 8 8 7 6 5 4 2 2 2 1 1 2 3 3 4 4 4 4 5 6 4 1 0 2 3 5 7 8 9 11 11 10 8 6 5 4 3 2 2 0 2 2 2 3 4 4 5 4 4 4 3 3 3 2 3 4 5 5 5 4 5 7 6 3 2 2 5 3
7 7 8 9 10 12 12 13 12 12 12 11 11 11 12 12 11 10 9 8 8 7 5 3 3 3 2 1 2 3 4 4 3 3 4 4 4 3 1 1 2 4 6 8 9 11 12 11 9 7 4 3 2 1 1 1 2 3 2 2 2 3 4 4 4 4 4 4 4 3 2 2 2 3 5 5 4 4 4 4 3 1 2 3 2
6 7 7 8 8 10 11 12 13 13 13 12 12 12 12 12 12 11 10 9 8 8 6 4 3 3 3 2 2 3 3 3 3 3 3 3 3 3 2 3 4 5 7 8 9 11 12 12 10 7 4 2 1 3 3 4 4 3 2 2 2 3 4 4 4 4 4 4 4 3 2 1 1 1 2 1 1 2 3 3 3 1 2 3 6
5 6 6 7 8 8 10 11 13 14 14 14 13 13 13 13 13 12 12 10 9 9 7 5 5 4 3 3 4 3 3 4 4 4 4 3 2 3 3 4 5 6 7 9 9 10 12 12 11 8 4 2 2 4 5 5 4 3 2 2 2 3 3 3 4 3 3 3 3 3 2 2 2 2 3 2 3 3 4 4 3 2 2 5 7
4 4 5 7 7 8 9 10 11 13 14 15 15 15 15 14 14 13 13 11 10 10 8 7 6 5 5 5 5 4 4 5 4 5 6 4 4 4 4 5 6 7 8 9 9 10 11 12 11 8 4 1 2 4 5 5 4 4 2 2 2 2 2 3 3 3 3 3 3 2 1 1 1 2 2 2 3 4 4 4 3 3 3 4 6
3 3 4 5 7 8 8 9 10 11 13 15 16 16 17 16 14 14 14 13 12 11 10 8 8 7 7 6 5 6 6 6 6 7 7 6 6 6 5 7 7 8 10 10 11 11 11 11 11 8 5 1 2 4 5 5 5 4 3 1 1 1 2 2 2 2 2 3 3 2 1 1 1 1 2 3 4 4 3 3 3 4 4 4 5
4 4 5 5 6 7 8 9 10 11 12 13 15 16 17 17 16 15 15 14 13 12 11 9 9 9 8 7 7 7 6 7 8 8 8 7 7 7 7 8 8 9 11 11 12 12 10 10 11 10 7 2 2 4 6 6 5 5 4 2 1 1 1 2 1 2 2 3 3 2 2 2 1 1 2 3 4 4 4 3 3 4 4 4 5
8 6 7 7 7 7 7 8 9 10 11 11 13 13 15 17 17 17 16 15 15 14 12 11 11 11 10 9 9 8 7 8 9 10 10 9 9 8 8 9 9 9 11 13 14 14 11 10 12 11 9 6 3 4 6 6 6 5 5 4 2 1 1 1 1 1 2 2 2 2 2 2 1 1 1 3 4 4 4 4 4 4 4 5 5
12 10 9 9 10 10 9 8 8 9 10 10 11 12 13 15 15 16 16 15 16 15 13 12 12 12 11 11 10 8 8 9 10 11 11 11 11 10 10 10 10 11 12 13 15 16 13 11 12 11 10 9 5 4 6 6 6 5 5 4 3 1 0 1 1 1 1 2 2 2 2 2 2 1 1 1 2 3 4 4 4 4 4 4 5
14 13 12 11 12 12 11 10 10 10 11 11 11 11 12 13 13 13 15 15 14 14 13 13 13 13 12 11 10 10 11 10 10 11 11 12 12 12 12 12 12 13 14 15 16 18 14 11 11 11 11 10 8 5 5 6 6 6 5 4 3 2 2 2 2 3 3 3 3 3 3 3 3 2 2 0 1 2 3 4 4 4 4 5 4
15 15 14 13 13 13 13 13 11 10 11 11 12 12 11 11 12 14 15 14 13 13 12 13 13 13 12 11 11 12 12 11 12 12 12 12 12 13 13 13 13 14 15 15 16 18 16 13 11 11 11 10 10 8 6 7 7 7 6 5 4 3 3 3 3 4 4 4 4 4 3 3 3 3 3 2 1 0 2 2 4 4 4 5 4
14 14 14 14 14 14 14 14 13 11 11 11 12 12 12 12 12 13 13 12 13 14 13 12 13 14 13 12 13 13 11 11 12 12 12 12 12 13 13 13 12 13 14 14 15 17 17 15 13 13 12 11 10 9 7 6 8 8 8 7 6 5 4 4 4 5 5 5 4 4 3 3 3 3 3 3 2 1 0 2 3 4 5 5 4
11 12 12 13 14 14 15 15 14 13 12 10 11 11 12 13 12 12 12 13 13 13 12 11 12 13 13 12 12 11 9 10 12 11 11 10 10 12 12 12 10 11 12 13 14 15 15 15 15 16 14 13 12 11 8 6 7 9 9 9 8 7 6 5 5 6 6 5 5 4 4 3 3 3 2 2 2 2 1 1 2 3 4 3 3
8 8 9 10 11 12 14 16 16 15 13 11 11 11 11 12 12 12 12 12 12 13 13 12 12 13 12 12 11 10 9 9 10 10 11 10 11 12 12 12 11 11 12 12 13 14 14 15 16 16 15 15 15 13 10 8 7 8 10 10 10 9 8 7 6 6 7 6 6 5 4 4 3 2 2 2 1 1 1 1 2 3 4 2 3
6 6 7 7 8 9 11 14 16 16 14 13 12 11 12 11 11 11 11 11 10 14 15 12 13 14 14 13 12 12 11 10 10 9 10 11 11 12 13 13 13 13 12 12 15 14 12 12 14 15 16 15 16 16 14 11 9 9 10 11 11 11 10 9 8 8 8 8 7 6 5 5 4 4 3 2 2 2 2 2 2 3 4 3 4
5 5 5 5 5 6 7 10 14 17 16 14 13 12 12 11 10 9 10 12 11 12 14 12 14 15 14 14 13 13 14 13 13 12 11 11 12 12 11 12 13 13 13 13 16 14 10 10 12 14 15 15 16 18 17 16 14 11 10 11 12 13 12 11 11 10 9 9 8 7 7 7 6 5 5 4 4 3 4 4 4 4 4 5 5
5 5 5 5 5 4 5 6 10 16 16 15 14 13 12 11 10 9 9 12 13 12 13 13 15 17 15 16 14 13 15 15 13 13 14 15 15 13 10 11 12 12 13 14 15 13 10 11 11 13 15 13 14 16 17 17 16 13 11 11 12 13 14 14 13 12 11 11 10 9 9 8 8 7 6 6 6 5 4 5 6 5 4 4 4
5 5 5 5 4 4 4 4 7 13 16 15 15 14 13 12 12 14 14 14 15 14 14 12 15 17 16 16 13 9 11 14 13 12 12 14 15 13 10 11 12 11 12 13 14 13 12 12 11 12 13 12 13 15 14 14 15 13 11 11 11 12 13 15 15 15 14 13 13 12 11 10 10 9 8 8 7 7 6 6 7 6 5 4 4
5 4 5 4 4 3 3 3 4 10 14 15 16 16 17 16 14 15 16 15 14 16 17 15 16 18 17 16 15 8 6 10 13 12 10 12 11 9 9 11 12 11 12 13 12 11 10 10 12 11 11 11 11 12 12 12 13 13 12 11 11 11 12 13 15 16 16 16 15 15 14 13 12 11 10 10 9 9 8 8 8 8 8 6 4
3 3 4 4 3 2 2 2 4 7 12 14 16 17 17 17 16 14 14 13 13 15 16 15 15 16 15 16 17 12 7 8 11 11 11 13 12 9 9 11 11 10 10 12 11 10 10 12 14 9 8 9 8 10 12 12 13 14 14 14 13 12 12 12 13 15 16 17 17 17 16 16 15 14 13 12 11 10 10 10 10 9 8 8 6
2 2 2 2 2 2 2 3 4 5 8 11 14 15 16 15 15 13 13 13 12 13 13 11 11 11 10 12 14 12 9 8 9 9 9 11 10 8 8 9 9 9 9 10 10 10 10 12 13 10 9 9 8 9 11 12 14 15 15 15 15 15 14 14 14 14 14 16 17 18 18 18 17 16 15 14 14 13 12 11 11 10 10 9 8
1 1 1 0 1 2 3 3 4 4 6 8 10 12 13 13 13 12 12 13 12 10 9 8 7 6 7 8 10 11 11 10 8 8 8 8 9 8 9 9 10 11 11 10 10 10 11 12 14 14 13 13 13 12 11 12 14 14 15 16 16 17 17 17 16 16 16 15 16 17 18 18 18 18 17 17 16 15 14 14 13 13 12 11 10
3 3 2 3 3 3 3 4 5 5 6 6 8 9 10 11 10 10 10 10 9 7 6 7 6 6 5 6 6 8 11 11 8 7 7 6 7 8 9 9 9 11 11 11 12 12 12 13 14 15 15 15 14 13 13 14 13 13 14 16 16 17 18 18 17 17 17 17 17 17 17 17 18 19 18 18 18 17 16 16 15 15 14 13 12
4 5 5 5 5 4 4 5 6 6 6 6 6 7 7 8 8 8 8 6 5 6 6 7 7 5 4 5 5 5 7 8 8 6 6 5 6 8 8 6 6 8 9 9 10 12 13 13 14 14 15 15 15 14 14 14 14 13 14 16 16 17 17 17 17 16 17 18 18 18 17 17 17 18 18 19 19 18 18 18 18 17 17 16 15
4 5 6 6 6 6 6 6 7 7 7 7 6 6 6 6 6 6 6 6 6 7 7 6 6 5 4 4 5 5 5 5 5 4 4 3 4 5 6 5 6 7 8 9 10 11 12 12 12 13 15 16 16 15 14 14 14 15 15 15 16 17 17 16 16 17 17 17 18 18 18 18 18 18 18 18 19 19 19 19 19 19 19 18 18
5 5 6 6 6 7 7 7 8 8 7 7 6 6 6 6 6 6 6 6 6 6 6 6 6 7 7 5 5 5 6 5 4 3 3 3 2 2 3 3 3 5 7 8 9 10 11 12 12 12 14 14 14 14 14 14 15 15 16 17 18 17 17 17 18 19 19 18 18 17 17 17 17 17 18 18 19 19 20 20 20 20 20 20 20
6 6 6 6 7 8 8 8 9 9 9 8 8 7 7 6 6 6 5 5 6 6 5 5 6 7 8 7 5 4 5 5 5 4 4 5 4 4 4 4 4 4 5 7 7 7 9 11 11 12 12 12 12 12 12 14 15 16 18 18 18 18 19 20 20 19 19 18 17 17 16 15 15 15 16 16 17 18 19 20 21 21 21 20 21
7 7 7 7 8 9 9 10 10 10 10 10 9 8 7 6 6 6 7 7 6 5 5 4 3 3 3 2 1 1 1 2 3 4 5 5 5 5 6 6 7 7 8 8 8 8 9 10 11 12 12 11 11 11 12 13 14 17 19 19 21 21 21 20 19 17 17 16 15 15 15 14 14 14 14 14 15 16 17 18 19 20 21 22 22
8 9 9 9 9 10 11 12 12 11 10 10 10 9 9 9 8 8 8 8 7 6 7 7 6 6 6 5 4 4 4 4 3 3 3 2 3 3 5 6 7 7 7 7 8 9 10 11 12 13 13 13 13 15 16 17 17 20 22 22 22 19 18 17 15 13 13 13 13 12 12 13 13 14 14 14 15 16 16 17 18 19 20 22 22
10 11 11 10 10 11 12 13 13 11 10 9 9 11 13 13 13 12 12 12 12 12 12 12 12 11 11 10 10 10 10 10 10 10 9 8 7 6 5 5 6 6 6 6 6 6 7 8 9 10 11 12 13 15 17 17 18 19 21 19 15 14 16 11 6 7 11 11 10 11 11 12 13 14 15 15 16 17 18 18 19 19 20 21 22
12 13 12 12 12 12 13 13 13 12 12 12 12 14 16 17 17 17 16 16 16 16 16 16 15 14 14 13 13 13 12 12 12 11 10 10 9 8 8 9 9 10 10 10 9 8 8 8 8 8 9 10 11 13 14 14 15 15 16 13 10 12 10 5 7 13 12 8 7 10 10 11 13 14 15 16 18 19 20 21 22 23 23 23 23
13 14 14 14 14 15 15 16 16 16 17 17 17 18 19 20 19 19 18 17 17 16 16 15 14 13 13 12 12 12 11 10 10 10 9 9 9 9 9 9 10 10 10 10 10 10 10 10 10 10 10 11 12 14 15 15 16 15 14 10 9 9 5 10 21 17 8 8 12 13 12 13 14 14 15 16 16 17 18 20 22 23 25 26 27
15 16 17 17 17 18 19 20 20 21 21 20 20 20 20 20 19 18 17 16 16 14 13 13 12 11 11 11 11 11 10 9 9 10 10 10 10 10 10 10 10 10 10 10 10 11 11 12 12 12 12 13 13 14 15 16 16 16 15 11 7 7 8 18 20 11 11 17 19 18 17 17 18 17 17 16 16 16 17 17 18 19 21 23 25
18 19 20 20 21 22 22 22 23 23 22 22 21 20 19 18 17 17 16 14 14 12 11 11 10 9 9 10 10 10 9 9 9 10 10 10 11 11 11 11 11 11 11 11 11 11 12 12 13 13 14 14 13 13 14 15 16 15 16 14 10 8 13 18 15 12 18 20 20 23 23 23 23 21 20 20 19 19 19 19 19 19 19 20 21
22 22 23 23 23 24 23 23 23 23 22 21 20 18 17 17 16 15 14 12 10 10 10 9 8 8 9 9 9 8 8 9 9 9 10 10 11 11 11 12 12 12 11 11 11 12 13 13 13 13 13 13 13 13 14 14 14 15 15 14 13 12 13 16 16 18 20 21 24 25 24 27 29 26 25 25 25 24 23 22 22 22 21 21 21
25 25 25 24 24 23 23 22 22 22 21 20 19 17 15 15 13 12 11 9 8 9 9 7 8 8 7 7 7 8 8 8 9 9 10 10 11 11 12 12 12 12 12 12 13 13 13 13 14 14 14 14 14 14 14 13 13 14 13 13 12 13 13 14 16 18 18 22 28 28 27 29 30 30 29 29 29 29 28 26 25 24 23 22 22
26 26 25 24 23 22 21 21 20 20 19 19 17 15 13 12 10 8 8 8 8 8 7 7 7 7 6 6 6 7 7 8 8 9 9 10 10 11 11 11 12 12 12 13 13 13 13 13 13 14 15 15 15 15 14 14 14 14 14 13 13 14 14 15 17 19 19 21 25 30 33 33 33 32 31 30 31 31 31 30 29 28 26 25 25
26 25 24 23 22 21 20 20 19 18 18 17 15 13 11 9 8 7 7 8 8 7 7 6 6 6 5 5 5 6 6 7 7 8 8 9 9 10 10 11 11 12 12 12 12 12 13 13 14 15 15 15 15 15 15 15 15 15 15 16 16 16 17 18 19 20 22 21 22 28 33 36 38 38 34 33 33 32 32 32 31 31 30 29 29
25 24 23 22 21 20 19 18 18 17 17 15 13 11 10 8 8 7 7 7 7 7 6 5 5 5 4 4 5 5 6 6 7 7 7 8 8 9 9 10 10 11 11 12 12 13 14 14 14 14 14 15 15 15 15 15 15 16 16 17 18 18 18 19 19 20 22 22 23 28 31 34 37 40 39 38 38 36 35 34 33 33 33 33 32
Wind_Direction
185 178 180 184 179 175 170 173 174 177 180 180 183 176 177 179 186 184 186 208 198 65 53 49 41 28 26 48 93 96 92 89 89 89 83 76 72 74 77 66 48 36 28 26 26 23 20 21 20 18 22 27 32 35 41 49 53 61 65 63 57 55 79 101 103 105 109 97 67 75 101 91 85 81 73 70 70 71 77 86 81 67 59 62 77
191 183 180 184 182 178 173 174 176 178 180 183 186 182 182 185 202 198 199 218 228 327 350 8 22 17 26 54 85 88 85 86 87 88 86 76 72 75 80 74 58 46 29 24 25 24 26 29 25 16 16 26 32 35 37 40 44 49 52 50 48 49 58 70 75 86 96 93 83 83 83 79 81 78 75 72 68 69 71 83 87 78 70 68 76
186 187 184 184 183 180 175 174 178 179 179 183 186 186 188 193 212 217 217 223 240 294 330 343 4 10 33 67 87 89 85 86 88 84 78 68 64 63 72 77 70 54 29 19 25 34 42 39 31 22 19 26 32 35 37 38 38 41 43 45 46 45 49 55 60 66 74 79 82 80 68 60 64 67 67 65 63 63 68 81 88 84 75 71 76
174 187 188 186 185 183 178 173 178 181 179 184 188 188 190 196 206 217 226 231 261 295 323 334 357 10 39 85 96 90 81 78 79 71 58 49 41 39 53 72 72 51 28 17 20 26 38 44 35 28 27 25 28 28 29 32 32 34 36 38 39 39 41 45 52 58 65 71 71 68 57 43 39 42 48 51 53 54 60 71 84 89 83 76 70
164 181 189 188 188 189 185 178 179 184 182 184 191 192 193 200 205 215 235 244 273 302 317 329 1 44 58 99 103 86 77 74 68 58 43 33 24 23 34 63 70 48 31 11 11 19 25 35 32 27 25 24 22 14 8 4 2 5 13 20 23 27 31 37 44 53 61 64 62 60 49 34 24 21 34 37 37 41 45 56 71 87 89 85 72
159 174 187 188 190 192 192 189 187 190 186 184 191 194 198 208 214 221 237 250 271 290 304 282 197 150 138 136 117 92 81 75 65 50 32 21 14 13 24 64 78 63 47 337 342 8 12 6 359 6 6 8 4 354 349 341 335 333 335 342 351 359 1 10 18 30 39 47 53 54 50 45 28 22 40 35 34 40 36 39 46 63 88 94 80
159 170 181 187 191 192 193 196 196 196 190 187 191 195 200 212 224 231 243 254 271 268 236 186 195 165 154 150 130 104 82 70 59 38 20 12 6 7 29 85 100 114 109 304 310 329 348 347 324 321 331 336 337 333 332 327 319 313 312 312 313 319 324 329 334 342 0 38 55 52 60 59 39 26 36 29 30 35 32 28 27 25 26 163 158
162 168 177 186 192 193 192 197 200 201 196 192 192 198 206 217 233 241 252 261 253 253 123 159 194 181 162 157 138 105 73 61 48 24 14 10 8 9 36 107 125 149 248 279 294 305 316 331 320 305 319 323 323 322 321 317 308 298 294 292 292 293 299 305 306 310 327 21 64 51 82 79 51 11 354 351 4 10 11 6 4 5 351 288 255
162 171 179 187 193 194 193 195 199 201 200 199 196 201 210 220 233 237 245 244 240 251 144 157 183 194 192 178 169 102 45 37 27 14 9 12 17 24 64 125 145 183 257 280 306 315 305 314 316 302 309 313 315 317 317 315 304 292 286 285 287 287 289 291 292 295 302 312 291 347 88 98 80 352 320 322 333 338 344 352 354 353 343 307 263
159 173 180 190 195 195 196 195 197 198 198 202 200 201 210 220 227 228 223 212 240 278 184 146 111 238 262 245 278 334 2 11 9 3 4 15 21 37 89 133 165 228 279 305 324 330 324 322 316 305 304 304 308 313 313 313 306 295 290 292 295 291 288 279 276 278 278 273 260 39 111 111 106 288 304 316 328 329 336 354 351 346 349 342 267
154 168 179 190 195 196 201 198 197 198 195 198 199 200 206 215 219 217 207 204 232 266 279 148 163 265 327 305 312 329 342 349 351 353 3 19 21 36 93 137 185 249 291 310 319 329 335 336 327 315 308 302 304 310 310 310 307 304 312 343 3 14 62 165 211 218 211 222 184 137 166 126 130 219 279 321 349 345 342 341 343 358 20 30 4
145 162 176 185 191 196 204 204 201 201 197 195 195 196 200 207 210 210 204 207 221 238 269 180 183 217 328 321 317 315 329 340 340 344 1 17 22 36 70 134 206 265 296 306 315 327 338 339 331 324 316 306 305 309 310 308 306 44 73 69 69 75 87 96 104 124 139 156 143 137 160 153 161 184 206 171 36 324 326 329 342 0 13 23 18
136 157 173 180 187 192 202 207 206 207 202 196 194 194 195 200 202 207 208 210 215 224 240 219 197 202 204 282 303 296 311 332 331 336 352 10 23 30 40 179 259 290 305 311 320 330 339 341 333 327 324 316 310 308 305 304 85 95 85 76 75 79 84 88 93 100 108 118 116 121 137 155 177 190 203 211 235 275 311 327 340 318 17 38 7
124 147 168 179 185 189 198 204 207 211 210 202 196 197 197 199 201 206 212 214 215 221 233 225 205 203 205 213 251 277 296 317 315 323 336 349 12 16 317 242 270 292 305 313 323 335 343 345 338 328 326 329 319 195 186 174 137 110 94 82 76 76 79 81 81 82 83 86 87 96 108 127 180 209 228 239 259 289 323 340 355 351 111 92 263
118 138 157 172 183 189 196 201 206 210 214 210 199 200 201 200 203 207 215 219 218 220 230 225 208 213 212 212 223 251 277 289 291 299 306 317 342 334 293 257 262 280 296 306 319 335 345 346 342 332 325 320 195 161 162 155 141 122 112 100 90 81 78 78 75 72 68 70 74 76 77 67 32 330 307 343 25 359 352 344 355 10 182 230 266
123 136 149 164 176 186 196 202 206 208 213 214 205 203 204 203 204 208 215 220 222 221 229 227 215 218 212 217 220 224 241 251 268 277 270 280 305 304 293 276 278 286 292 300 311 329 340 343 340 334 333 316 186 161 161 154 141 130 126 114 104 90 82 79 79 78 76 77 78 75 66 38 20 357 356 39 39 8 351 338 337 334 274 264 283
143 153 157 161 168 178 191 202 207 209 211 213 211 208 207 208 207 209 214 220 224 224 230 232 224 221 217 221 221 218 227 237 245 251 257 264 262 263 279 282 284 290 291 295 304 320 329 334 334 328 327 325 180 168 163 157 145 138 137 128 104 84 76 72 77 83 90 95 97 99 97 67 31 356 341 346 9 7 346 333 329 318 299 288 292
178 188 190 177 176 177 183 195 204 211 213 215 214 211 209 210 209 210 216 222 225 226 232 234 230 228 226 226 226 223 225 233 234 237 247 251 256 258 270 279 280 284 287 290 298 309 317 325 328 319 310 301 168 176 171 165 156 151 151 146 106 61 52 50 69 88 100 105 109 123 117 97 67 357 328 322 346 353 339 335 329 321 312 306 297
219 216 223 214 205 196 187 190 196 206 213 217 218 215 212 210 210 211 216 225 227 227 231 235 234 232 233 234 231 230 232 239 238 240 246 246 252 257 263 274 280 279 283 290 296 301 308 321 325 316 306 285 181 179 182 177 168 164 163 168 167 81 28 29 50 83 102 112 120 131 120 103 85 15 343 328 338 345 345 346 337 332 325 319 310
234 233 235 230 230 226 215 204 196 200 209 218 222 221 217 213 213 213 214 224 230 228 230 233 234 236 237 240 238 237 244 250 249 247 247 248 250 254 262 271 276 277 284 291 295 300 305 322 329 321 310 296 239 193 192 188 182 177 173 178 181 158 22 18 35 93 111 123 135 133 123 116 103 59 358 340 338 343 348 350 348 342 334 326 324
232 237 238 234 233 235 238 234 221 210 207 212 219 222 223 219 218 220 219 224 233 234 236 235 234 237 238 243 244 240 243 249 253 252 249 250 252 255 260 266 273 276 282 285 291 297 301 317 329 327 316 303 283 229 205 202 197 192 187 187 195 198 264 278 233 186 173 164 165 160 148 145 132 117 40 354 338 344 346 349 350 345 343 334 329
229 234 237 235 234 233 236 240 242 235 223 217 213 214 220 220 216 223 227 227 235 240 243 242 240 242 242 246 248 244 241 242 249 253 250 249 252 257 261 265 271 273 272 276 288 295 299 312 321 327 323 309 297 269 228 220 213 209 206 202 210 224 245 256 237 215 206 197 189 182 171 165 156 150 148 114 344 344 343 344 345 348 349 341 335
229 233 235 235 233 233 233 233 238 241 239 230 218 212 211 215 214 220 224 221 231 240 241 242 243 244 244 243 244 248 245 240 244 247 245 244 250 258 264 267 269 271 269 275 288 294 299 304 305 319 326 316 304 286 253 233 226 225 222 217 222 232 247 257 247 232 222 213 206 196 187 178 171 164 160 159 155 311 334 346 348 351 350 346 348
234 238 239 240 238 235 234 231 231 233 238 234 226 216 203 204 211 220 222 216 226 236 236 238 243 244 245 245 241 244 244 240 246 249 245 244 252 261 267 271 272 269 270 279 290 294 300 305 306 316 324 323 312 296 275 249 236 233 232 230 228 233 242 252 253 244 234 226 219 210 204 191 183 177 170 165 156 160 352 7 355 351 354 352 356
243 246 247 248 247 243 237 231 228 226 230 230 229 221 205 197 201 214 218 215 223 231 235 236 242 247 248 253 249 243 243 245 248 248 246 242 247 259 265 271 272 268 273 283 288 293 302 310 314 318 323 324 317 304 288 269 250 241 238 238 235 234 238 245 254 252 246 239 230 224 218 212 205 196 190 178 162 152 117 28 354 349 357 358 4
254 259 263 264 260 254 244 232 226 222 222 222 223 221 213 198 194 209 215 217 222 223 233 236 234 242 242 245 252 251 247 248 248 246 247 248 249 257 265 267 264 265 273 282 287 293 298 307 317 323 325 322 316 309 296 283 270 255 246 244 243 242 241 243 250 254 254 250 243 238 233 232 234 227 230 235 223 185 140 60 353 343 351 358 356
277 283 284 282 276 266 252 236 225 220 217 215 216 216 213 197 190 199 204 212 214 213 228 237 232 237 237 237 249 257 251 243 246 250 250 253 255 261 267 264 259 259 262 273 282 282 282 298 317 325 325 319 315 314 310 301 288 274 262 252 249 249 249 249 252 256 257 257 255 250 249 247 247 250 253 263 279 291 294 309 327 329 340 354 343
292 298 298 295 289 278 265 244 225 218 215 212 212 213 209 198 187 183 194 201 203 213 222 226 232 237 234 233 245 252 249 246 248 252 252 255 255 258 262 254 252 256 255 266 272 263 267 297 312 320 320 318 319 320 316 311 303 290 281 270 260 256 255 256 256 259 261 263 264 261 262 261 259 259 261 267 271 283 300 308 319 330 338 350 341
307 308 306 304 303 289 276 257 226 215 213 211 210 210 204 196 186 181 200 204 203 215 215 212 223 232 232 233 241 239 240 247 253 252 254 259 254 251 257 247 245 253 256 263 263 258 279 294 296 308 312 313 318 320 314 311 310 299 291 287 277 268 262 261 261 262 264 266 268 267 267 268 268 268 267 270 273 281 294 302 313 325 325 322 316
308 307 305 305 306 291 271 258 228 210 209 211 208 205 198 199 198 193 204 210 209 214 216 217 221 228 230 229 232 228 226 234 242 250 256 259 251 243 251 250 243 249 256 261 259 265 282 284 285 300 304 307 316 319 314 308 308 304 299 296 287 280 271 266 265 265 268 269 271 272 271 271 272 274 274 275 279 283 288 292 299 308 309 292 270
301 300 303 304 305 290 260 240 225 205 206 210 207 204 202 205 208 203 207 211 212 216 222 231 233 235 235 227 227 225 210 214 226 242 245 246 251 247 249 252 251 259 263 257 254 265 277 275 275 285 293 301 314 318 314 307 304 306 311 311 304 296 285 275 269 267 268 269 271 273 275 276 277 278 279 278 280 283 287 290 293 302 309 302 271
296 291 290 293 302 299 258 214 208 203 206 211 210 208 207 209 211 210 212 208 207 216 225 235 238 240 238 233 236 239 231 220 230 245 245 245 258 269 259 253 254 261 261 250 249 259 267 266 262 269 287 292 309 315 312 311 305 304 308 313 316 312 305 295 283 275 270 269 270 272 274 276 278 279 281 280 280 280 283 285 289 296 300 302 298
283 283 286 283 287 284 248 199 191 198 201 206 207 206 206 211 213 211 211 213 215 221 227 233 234 236 235 236 243 245 239 233 232 236 243 248 256 267 260 248 244 245 244 237 241 253 255 256 259 275 286 277 291 301 301 303 302 302 304 308 313 315 314 311 306 298 287 280 275 273 273 274 276 278 279 280 280 278 277 278 281 284 285 288 293
40 57 33 207 200 216 211 191 179 182 191 199 201 202 205 210 215 213 210 218 228 227 223 222 223 228 234 242 247 243 231 224 222 226 239 252 260 267 260 249 247 249 246 236 236 248 250 252 263 278 281 273 277 283 283 287 292 300 304 306 310 313 315 315 315 313 307 300 290 283 279 276 276 276 277 277 276 276 275 274 275 277 278 280 281
76 85 101 114 123 145 168 169 164 170 182 190 195 200 208 213 216 217 216 222 229 223 212 214 215 218 226 238 246 235 222 222 232 244 250 257 257 253 246 243 250 255 252 244 242 251 255 257 264 272 273 269 273 278 277 275 280 292 301 307 311 312 314 315 316 316 312 307 301 295 289 284 279 275 274 274 274 273 273 272 271 272 274 275 277
88 97 104 103 109 120 131 146 155 163 171 177 189 197 206 214 214 214 215 214 204 188 181 192 201 206 212 218 226 218 212 225 241 251 253 252 242 236 236 243 259 260 254 248 249 252 254 257 264 269 268 266 270 272 270 272 277 285 295 304 308 309 308 309 312 313 311 306 302 300 298 294 288 282 276 274 273 272 271 271 270 270 271 271 272
100 102 104 106 113 119 123 139 150 156 163 171 181 188 193 200 198 194 191 186 189 189 182 182 189 198 200 193 193 192 192 206 222 234 249 257 247 243 247 253 258 254 253 260 263 259 254 256 264 271 271 270 271 270 268 272 276 280 289 296 301 302 301 303 306 306 304 302 300 299 297 295 293 290 286 282 278 275 272 270 270 270 271 271 271
121 117 116 121 122 122 131 140 144 145 150 155 161 167 173 178 181 183 184 185 189 188 187 196 203 206 213 217 210 207 210 212 212 221 241 249 253 262 263 264 258 254 266 277 274 262 253 258 269 276 277 276 275 274 271 272 275 278 284 292 295 296 297 301 300 299 298 299 299 296 291 289 289 290 290 288 285 280 276 273 271 270 271 271 271
138 134 130 130 127 128 135 138 138 138 137 137 137 142 151 158 168 175 174 164 161 169 187 207 217 217 220 232 246 240 229 229 235 245 251 250 247 250 254 263 271 278 288 292 286 271 261 267 278 286 289 289 289 285 276 274 277 281 287 293 294 294 298 299 296 295 296 297 297 294 290 287 285 284 284 284 283 282 280 278 276 274 272 272 271
149 144 137 129 126 127 127 127 125 122 120 117 114 116 127 142 148 146 147 147 150 164 169 163 166 180 182 189 247 321 256 256 260 265 272 274 269 267 271 277 283 288 289 286 280 277 277 279 284 289 294 298 300 297 291 288 290 292 294 295 296 298 298 296 294 293 292 293 293 291 288 283 280 280 280 280 281 279 279 278 277 277 275 274 273
156 149 141 133 128 123 121 119 113 107 106 104 103 105 106 111 120 122 124 122 116 119 121 114 108 102 99 98 92 81 68 59 56 44 29 6 333 314 308 307 306 307 304 294 282 276 280 284 284 286 287 289 290 290 290 293 297 298 297 301 305 307 302 296 293 289 287 288 289 286 282 280 279 279 280 282 282 280 280 278 277 276 275 275 274
159 154 149 144 137 130 126 122 115 110 109 108 106 106 103 101 106 110 107 104 102 104 103 99 95 94 91 87 82 77 71 66 61 56 52 49 42 34 22 10 3 359 355 347 334 315 306 302 297 294 294 295 294 294 295 300 304 306 311 319 325 324 322 313 292 302 306 296 290 290 288 290 289 287 287 287 286 285 283 282 281 280 279 277 276
159 158 156 151 144 138 131 123 119 118 115 112 110 107 104 102 101 102 101 100 99 96 91 87 86 84 81 78 73 69 65 60 56 52 46 42 38 34 29 26 23 21 20 18 13 5 357 351 344 337 332 329 325 324 325 327 329 330 335 337 334 337 337 323 325 330 324 307 305 312 306 304 304 301 302 301 298 295 292 290 288 287 286 284 283
159 157 154 148 142 135 127 122 119 117 113 109 106 102 99 99 97 95 95 94 91 88 85 83 82 81 79 76 71 66 62 58 55 50 43 38 34 31 29 28 25 26 26 24 22 18 16 14 11 11 6 360 356 355 355 354 353 356 359 349 336 354 358 322 332 339 336 324 325 328 324 319 320 321 322 319 315 311 306 303 300 297 295 292 290
155 149 145 140 135 129 123 120 117 113 110 107 104 101 99 99 100 100 99 96 91 88 88 86 85 82 78 73 68 62 56 53 49 43 37 34 32 31 31 31 30 30 29 25 24 23 22 19 17 17 16 15 15 11 9 8 7 8 13 15 2 357 340 336 343 343 329 328 330 337 338 334 334 337 339 336 333 333 328 325 320 315 311 306 301
147 142 138 134 130 126 123 120 117 114 111 109 107 105 105 105 105 104 101 97 96 95 91 86 84 79 74 68 62 56 49 44 40 35 32 30 29 28 27 25 24 25 25 25 25 24 22 21 20 20 20 22 23 20 18 18 17 16 19 26 27 6 349 353 357 338 328 330 334 340 340 339 338 340 343 341 339 341 340 340 338 335 333 328 322
142 139 136 132 130 127 124 122 120 117 114 112 110 108 108 107 104 102 98 96 98 99 95 88 82 75 69 64 58 53 47 39 35 32 31 30 28 26 25 23 21 21 24 23 21 23 23 22 23 23 24 24 23 22 25 26 23 22 24 26 26 19 7 5 2 350 338 328 328 333 334 336 336 335 340 341 339 340 340 342 341 340 340 339 337
141 138 135 132 131 128 126 125 122 120 117 114 111 109 106 103 101 101 102 103 100 99 99 90 80 72 64 59 53 46 43 36 33 32 29 28 27 26 25 23 22 22 23 22 23 26 26 25 25 24 24 23 23 25 26 27 27 26 26 24 20 15 8 4 360 356 346 331 328 329 327 329 332 333 337 339 338 338 337 338 339 338 338 338 337
140 137 135 133 132 130 128 127 125 122 119 115 111 108 106 105 104 104 105 105 101 96 95 89 79 73 61 54 50 43 40 34 32 31 28 27 25 24 24 22 22 24 25 26 29 29 27 26 24 23 23 22 22 24 22 22 23 22 19 17 12 8 3 359 355 352 348 337 330 329 329 328 327 328 332 333 334 335 335 335 335 335 335 335 334
140 138 137 136 135 134 132 131 129 126 122 117 114 113 114 115 112 106 99 99 98 93 92 89 84 77 62 54 51 45 42 37 33 31 27 26 24 23 21 19 20 23 25 27 27 26 25 23 22 22 22 20 19 19 18 18 17 14 12 9 5 3 360 357 354 350 348 341 331 331 333 331 327 325 327 329 328 329 330 332 332 332 332 332 332
143 142 141 139 139 138 137 137 134 130 125 122 124 126 127 126 118 106 99 97 95 91 90 90 87 80 63 55 53 49 45 40 36 32 28 27 25 21 19 19 20 21 21 22 21 21 21 20 20 18 15 15 14 14 14 12 9 6 4 2 0 0 358 354 351 348 345 340 332 329 332 332 327 325 326 326 324 324 325 326 328 330 331 330 330